Location: Grace Lawn Cemetery
(37.4588°N, 96.2724°W)
Time: 06:17:45
(UTC+00:00)

Daily predictions for brighter satellites

Satellite Brightness Start Highest point End
(mag) Time Altitude Azimuth Time Altitude Azimuth Time Altitude Azimuth
Abrixas rocket 4.1 12:02:44 14° NNW 12:03:02 14° NNW 12:04:49 10° NNE
Shenzhou-11 Module 3.0 12:03:15 23° WSW 12:04:03 28° SSW 12:06:25 10° SSE
Helios 1A Rocket 2.8 12:01:16 10° NNE 12:05:22 84° WNW 12:09:25 10° SSW
Cosmos 1408 Rocket 4.4 12:05:47 10° SW 12:09:26 26° WNW 12:13:06 10° NNW
Delta 2 Rocket 3.8 12:11:35 15° W 12:15:17 72° S 12:20:19 10° E
ATLAS 2AS CENTAUR R/B 3.1 12:08:33 10° NW 12:15:35 47° WSW 12:22:02 10° S
Cosmos 1500 Rocket 3.7 12:12:49 10° SSW 12:17:09 50° W 12:21:29 10° N
PAYLOAD B 4.3 12:14:09 10° N 12:19:29 54° WNW 12:24:48 10° SSW
Cosmos 1125 Rocket 3.9 12:14:48 10° SW 12:19:46 41° WNW 12:24:45 10° N
CZ-2C R/B 4.2 12:21:14 10° NW 12:21:57 11° NW 12:21:57 11° NW
Sich 1 3.9 12:19:51 10° S 12:23:59 52° E 12:28:08 10° NNE
SJ-7 4.4 12:20:01 10° N 12:24:10 84° WNW 12:28:13 10° SSW
Meteor 1-26 Rocket 4.2 12:18:49 10° NNW 12:24:28 78° W 12:29:57 10° S
OAO 3 Rocket 4.4 12:21:23 10° W 12:25:35 30° SSW 12:29:44 10° SE
Cosmos 1437 4.1 12:23:38 10° WSW 12:25:44 17° WNW 12:27:52 10° NNW
Cosmos 2237 4.4 12:27:54 10° NNW 12:33:26 52° WSW 12:38:55 10° S
COSMO-SKYMED 1 3.8 12:35:17 10° SSW 12:38:42 22° W 12:42:07 10° NW
CZ-4 R/B 4.5 12:37:28 10° ENE 12:39:45 15° E 12:41:59 10° SE
NOAA 6 4.3 12:35:50 10° N 12:40:39 43° WNW 12:45:28 10° SW
Cosmos 2360 Rocket 2.7 12:36:40 10° NW 12:41:57 41° WSW 12:47:11 10° S
COSMOS 2428 3.2 12:39:18 10° NNW 12:45:00 66° ENE 12:50:41 10° SSE
Cosmos 2237 Rocket 4.1 12:42:32 10° N 12:47:15 26° ENE 12:51:57 10° ESE
NOSS 3-1 (A) 3.8 23:25:56 10° SW 23:31:16 59° NW 23:37:23 10° NNE
Cosmos 1633 3.0 23:31:33 10° N 23:34:59 38° E 23:38:23 10° SSE
COBE Rocket 4.2 23:33:06 10° NNE 23:37:36 43° E 23:41:59 10° S
Cosmos 1862 3.8 23:37:51 10° N 23:41:36 38° E 23:45:20 10° SSE
Cosmos 1805 Rocket 3.6 23:37:27 10° N 23:41:51 86° W 23:46:15 10° S
CORIOLIS 4.2 23:47:34 10° SSE 23:52:52 63° ENE 23:58:15 10° N
GPS 2-04 Rocket1 2.7 23:51:04 10° WSW 23:54:31 56° S 23:57:38 12° E
Geosat 4.3 23:49:53 10° NE 23:54:45 48° ESE 23:59:34 10° S
